Coatesville, PA

7:58 PM EDT on June 25, 2017 (GMT -0400)
Chester County Carlson

Weather History for KMQS - December, 2012

Change the Weather History Date:

Wednesday, December 26, 2012

  Actual Average (KILG) Record (KILG)
Temperature  
Mean Temperature 34 °F -  
Max Temperature 37 °F 39 °F 70 °F (1964)
Min Temperature 30 °F 23 °F -2 °F (1983)
Degree Days  
Heating Degree Days 32    
Moisture  
Dew Point 30 °F    
Average Humidity 90    
Maximum Humidity 100    
Minimum Humidity 75    
Precipitation  
Precipitation 2.60 in - - ()
Sea Level Pressure  
Sea Level Pressure 29.91 in    
Wind  
Wind Speed 8 mph (ENE)    
Max Wind Speed 25 mph    
Max Gust Speed 53 mph    
Visibility 7 miles    
Events Rain , Snow    
Averages and records for this station are not official NWS values.
T = Trace of Precipitation, MM = Missing Value Source: NWS Daily Summary

Daily Weather History Graph

Daily Weather History Graph

Search for Another Location

Airport or City:

Trip Planner

Search our weather history database for the weather conditions in past years. The results will help you decide how hot, cold, wet, or windy it might be!

Date:

Astronomy

Dec. 26, 2012 Rise Set
Actual Time 7:24 AM EST 4:44 PM EST
Civil Twilight 6:53 AM EST 5:15 PM EST
Nautical Twilight 6:19 AM EST 5:49 PM EST
Astronomical Twilight 5:46 AM EST 6:22 PM EST
Moon 3:36 PM EST (12/26) 5:45 AM EST (12/26)
Length of Visible Light 10h 21m
Length of Day
9h 20m
Waxing Gibbous, 97% of the Moon is Illuminated
Dec 26
Waxing Gibbous
Dec 28
Full
Jan 4
Last Quarter
Jan 11
New
Jan 18
First Quarter

Hourly Weather History & Observations

Time (EST) Temp. Windchill Dew Point Humidity Pressure Visibility Wind Dir Wind Speed Gust Speed Precip Events Conditions
12:15 AM 32.0 °F 27.5 °F 26.6 °F 80% 30.27 in 10.0 mi North 4.6 mph - N/A   Overcast
12:35 AM 32.0 °F - 24.8 °F 75% 30.27 in 10.0 mi Calm Calm - N/A   Overcast
12:55 AM 32.0 °F 28.7 °F 26.6 °F 80% 30.26 in 10.0 mi North 3.5 mph - N/A   Overcast
1:15 AM 32.0 °F 28.7 °F 26.6 °F 80% 30.25 in 10.0 mi NNE 3.5 mph - N/A   Overcast
1:35 AM 32.0 °F 28.7 °F 26.6 °F 80% 30.27 in 10.0 mi North 3.5 mph - N/A   Overcast
1:55 AM 32.0 °F - 26.6 °F 80% 30.28 in 10.0 mi Calm Calm - N/A   Overcast
2:15 AM 32.0 °F - 26.6 °F 80% 30.27 in 10.0 mi Calm Calm - N/A   Overcast
2:35 AM 32.0 °F - 26.6 °F 80% 30.26 in 10.0 mi Calm Calm - N/A   Overcast
2:55 AM 32.0 °F 27.5 °F 26.6 °F 80% 30.25 in 10.0 mi NNE 4.6 mph - N/A   Overcast
3:15 AM 32.0 °F 26.4 °F 26.6 °F 80% 30.24 in 10.0 mi NNE 5.8 mph - N/A   Overcast
3:35 AM 32.0 °F 27.5 °F 26.6 °F 80% 30.24 in 10.0 mi North 4.6 mph - N/A   Overcast
4:15 AM 32.0 °F 26.4 °F 26.6 °F 80% 30.24 in 10.0 mi North 5.8 mph - N/A   Overcast
4:35 AM 32.0 °F 24.8 °F 24.8 °F 75% 30.22 in 10.0 mi NNE 8.1 mph - N/A   Overcast
4:55 AM 30.2 °F 24.3 °F 24.8 °F 80% 30.21 in 10.0 mi NE 5.8 mph - N/A   Overcast
5:15 AM 30.2 °F 24.3 °F 24.8 °F 80% 30.19 in 10.0 mi NE 5.8 mph - N/A   Overcast
5:35 AM 30.2 °F 24.3 °F 24.8 °F 80% 30.19 in 10.0 mi NE 5.8 mph - N/A   Overcast
5:55 AM 30.2 °F 24.3 °F 24.8 °F 80% 30.19 in 10.0 mi ENE 5.8 mph - N/A   Overcast
6:35 AM 30.2 °F 26.7 °F 24.8 °F 80% 30.22 in 10.0 mi NE 3.5 mph - N/A   Overcast
6:55 AM 30.2 °F 26.7 °F 24.8 °F 80% 30.21 in 10.0 mi NE 3.5 mph - N/A   Overcast
7:15 AM 30.2 °F 25.4 °F 24.8 °F 80% 30.20 in 10.0 mi NE 4.6 mph - N/A   Overcast
7:35 AM 30.2 °F 23.4 °F 24.8 °F 80% 30.19 in 10.0 mi NE 6.9 mph - N/A   Overcast
7:55 AM 30.2 °F 25.4 °F 24.8 °F 80% 30.19 in 10.0 mi NE 4.6 mph - N/A   Overcast
8:15 AM 30.2 °F 24.3 °F 24.8 °F 80% 30.19 in 10.0 mi NE 5.8 mph - N/A   Overcast
8:35 AM 30.2 °F 25.4 °F 24.8 °F 80% 30.18 in 10.0 mi NE 4.6 mph - N/A   Mostly Cloudy
8:55 AM 30.2 °F 26.7 °F 24.8 °F 80% 30.18 in 10.0 mi ENE 3.5 mph - N/A   Partly Cloudy
9:15 AM 30.2 °F 21.9 °F 24.8 °F 80% 30.16 in 10.0 mi ENE 9.2 mph 20.7 mph N/A   Clear
9:35 AM 30.2 °F 21.3 °F 26.6 °F 86% 30.14 in 10.0 mi ENE 10.4 mph 19.6 mph N/A   Clear
9:55 AM 30.2 °F 18.5 °F 26.6 °F 86% 30.12 in 10.0 mi East 17.3 mph 26.5 mph N/A   Clear
10:15 AM 30.2 °F 18.1 °F 26.6 °F 86% 30.11 in 10.0 mi East 18.4 mph 27.6 mph N/A   Clear
10:35 AM 30.2 °F 20.2 °F 26.6 °F 86% 30.12 in 10.0 mi East 12.7 mph 27.6 mph N/A   Clear
10:55 AM 30.2 °F 19.3 °F 26.6 °F 86% 30.11 in 10.0 mi ENE 15.0 mph 24.2 mph N/A   Mostly Cloudy
11:15 AM 32.0 °F 24.2 °F 26.6 °F 80% 30.09 in 10.0 mi ENE 9.2 mph 19.6 mph N/A   Overcast
11:35 AM 30.2 °F 20.2 °F 26.6 °F 86% 30.06 in 2.5 mi ENE 12.7 mph 24.2 mph 0.01 in Snow Light Snow
11:55 AM 30.2 °F 22.6 °F 28.4 °F 93% 30.04 in 0.8 mi ENE 8.1 mph 21.9 mph 0.15 in Snow Light Snow
12:15 PM 30.2 °F 23.4 °F 28.4 °F 93% 30.02 in 2.0 mi ENE 6.9 mph 20.7 mph 0.03 in Snow Light Snow
12:35 PM 30.2 °F 23.4 °F 28.4 °F 93% 30.00 in 9.0 mi ENE 6.9 mph 20.7 mph 0.03 in Snow Light Snow
12:55 PM 30.2 °F 24.3 °F 28.4 °F 93% 29.97 in 1.5 mi ENE 5.8 mph 17.3 mph 0.08 in Snow Light Snow
1:15 PM 30.2 °F 22.6 °F 28.4 °F 93% 29.94 in 0.5 mi ENE 8.1 mph 17.3 mph 0.34 in Snow Snow
1:35 PM 30.2 °F 21.9 °F 28.4 °F 93% 29.92 in 1.0 mi ENE 9.2 mph 19.6 mph 0.59 in Snow Light Snow
1:55 PM 30.2 °F 21.9 °F 28.4 °F 93% 29.89 in 3.0 mi ENE 9.2 mph 19.6 mph 0.63 in Rain Light Freezing Rain
2:15 PM 32.0 °F 23.0 °F 30.2 °F 93% 29.84 in 3.0 mi ENE 11.5 mph 24.2 mph 0.05 in   Overcast
2:35 PM 32.0 °F 22.1 °F 30.2 °F 93% 29.82 in 3.0 mi ENE 13.8 mph 29.9 mph 0.19 in Snow Light Snow
2:55 PM 32.0 °F 22.1 °F 32.0 °F 100% 29.82 in 2.5 mi East 13.8 mph 28.8 mph 0.30 in   Overcast
3:15 PM 32.0 °F 21.6 °F 32.0 °F 100% 29.78 in 2.0 mi East 15.0 mph 26.5 mph 0.04 in   Overcast
3:35 PM 32.0 °F 21.2 °F 32.0 °F 100% 29.76 in 2.5 mi East 16.1 mph 28.8 mph 0.09 in Rain Light Rain
3:55 PM 33.8 °F 23.5 °F 32.0 °F 93% 29.73 in 2.5 mi East 16.1 mph 24.2 mph 0.12 in Rain Rain
4:15 PM 33.8 °F 24.8 °F 33.8 °F 100% 29.73 in 3.0 mi ENE 12.7 mph 21.9 mph N/A Rain Light Rain
4:35 PM 33.8 °F 23.5 °F 33.8 °F 100% 29.69 in 3.0 mi East 16.1 mph 25.3 mph 0.05 in Rain Rain
4:55 PM 33.8 °F 22.5 °F 33.8 °F 100% 29.69 in 3.0 mi East 19.6 mph 31.1 mph 0.10 in Rain Heavy Rain
5:15 PM 35.6 °F 24.5 °F 35.6 °F 100% 29.65 in 2.5 mi ENE 20.7 mph 40.3 mph 0.07 in Snow Light Snow
5:35 PM 35.6 °F 23.7 °F 35.6 °F 100% 29.64 in 5.0 mi East 24.2 mph 34.5 mph 0.39 in   Overcast
5:55 PM 35.6 °F 27.1 °F 35.6 °F 100% 29.64 in 3.0 mi ENE 12.7 mph 36.8 mph 0.52 in Rain Heavy Rain
6:15 PM 35.6 °F 25.2 °F 35.6 °F 100% 29.65 in 2.5 mi East 18.4 mph 24.2 mph 0.08 in Rain Heavy Rain
6:35 PM 35.6 °F 24.8 °F 35.6 °F 100% 29.63 in 3.0 mi ENE 19.6 mph 33.4 mph 0.20 in Rain Heavy Rain
6:55 PM 35.6 °F 24.2 °F 35.6 °F 100% 29.54 in 2.0 mi East 21.9 mph 43.7 mph 0.60 in   Overcast
7:15 PM 37.4 °F 25.9 °F 37.4 °F 100% 29.56 in 7.0 mi East 25.3 mph 38.0 mph N/A Rain Light Rain
7:35 PM 37.4 °F 28.9 °F 37.4 °F 100% 29.54 in 7.0 mi ENE 13.8 mph 34.5 mph N/A Rain Light Rain
7:55 PM 37.4 °F 26.9 °F 37.4 °F 100% 29.51 in 4.0 mi East 20.7 mph 35.7 mph 0.06 in   Overcast
8:15 PM 37.4 °F 26.4 °F 37.4 °F 100% 29.50 in 7.0 mi East 23.0 mph 52.9 mph 0.04 in Snow Light Snow
8:35 PM 37.4 °F 28.9 °F 37.4 °F 100% 29.51 in 10.0 mi ENE 13.8 mph 34.5 mph 0.04 in   Overcast
8:55 PM 37.4 °F 29.3 °F 37.4 °F 100% 29.50 in 10.0 mi ENE 12.7 mph 43.7 mph 0.04 in   Overcast
9:15 PM 37.4 °F 28.5 °F 37.4 °F 100% 29.48 in 10.0 mi NE 15.0 mph 31.1 mph N/A   Overcast
9:35 PM 37.4 °F 28.9 °F 37.4 °F 100% 29.48 in 10.0 mi ENE 13.8 mph 34.5 mph N/A   Overcast
9:55 PM 37.4 °F 28.5 °F 37.4 °F 100% 29.46 in 10.0 mi ENE 15.0 mph 28.8 mph N/A   Overcast
10:15 PM 37.4 °F 28.2 °F 37.4 °F 100% 29.45 in 10.0 mi ENE 16.1 mph 29.9 mph N/A   Overcast
10:35 PM 37.4 °F 28.9 °F 37.4 °F 100% 29.43 in 10.0 mi ENE 13.8 mph 26.5 mph N/A   Overcast
10:55 PM 37.4 °F 29.3 °F 37.4 °F 100% 29.43 in 10.0 mi ENE 12.7 mph 20.7 mph N/A   Overcast
11:15 PM 37.4 °F 31.4 °F 37.4 °F 100% 29.42 in 10.0 mi NE 8.1 mph 18.4 mph N/A   Overcast
11:35 PM 37.4 °F 28.5 °F 35.6 °F 93% 29.40 in 10.0 mi NE 15.0 mph 25.3 mph N/A   Overcast
11:55 PM 37.4 °F 28.5 °F 35.6 °F 93% 29.38 in 10.0 mi NE 15.0 mph 24.2 mph N/A   Overcast